FW1511 Weather Reports


Display with metric or nautical units.
time (UTC)temp
F
wind
direction
speed
MPH
gust
MPH
rain 1hr
in
rain 24hr
in
rain mn
in
humidity
%
barometer
mb
20260906014553 67 0 0.0 0.0 0.00 0.01 0.01 67 1015.0
20260906014501 67 59 0.0 0.0 0.00 0.01 0.01 67 1015.5
20260906013102 68 59 0.0 0.0 0.00 0.01 0.01 65 1015.5
20260906012753 68 0 0.0 0.0 0.00 0.01 0.01 65 1015.0
20260906011853 68 0 0.0 1.0 0.00 0.01 0.01 65 1015.0
20260906011501 68 58 0.0 1.0 0.00 0.01 0.01 65 1015.5
20260906010953 69 0 0.0 1.0 0.00 0.01 0.01 65 1014.9
20260906010054 69 0 0.0 1.0 0.00 0.01 0.01 66 1014.8
20260906004501 70 56 0.0 1.0 0.00 0.01 0.01 62 1015.2
20260906004253 70 0 0.0 1.0 0.00 0.01 0.01 62 1014.7
20260906003353 71 0 0.0 1.0 0.00 0.01 0.01 63 1014.6
20260906003108 70 37 0.0 1.0 0.00 0.01 0.01 62 1015.0
20260906002453 72 59 0.0 2.0 0.00 0.01 0.01 61 1014.6
20260906001554 73 49 1.0 2.0 0.00 0.01 0.01 59 1014.6
20260906001500 73 63 0.0 3.0 0.00 0.01 0.01 58 1015.1
20260906000654 76 19 1.0 4.0 0.00 0.01 0.01 54 1014.6
20260906000101 76 74 1.0 4.0 0.00 0.01 0.01 52 1015.0
20260905234853 76 82 2.0 6.0 0.00 0.01 0.01 54 1014.4
20260905234501 75 24 1.0 7.0 0.00 0.01 0.01 51 1015.1
20260905233100 75 110 3.0 6.0 0.00 0.01 0.01 50 1015.1
20260905233053 75 117 1.0 6.0 0.00 0.01 0.01 50 1014.6
20260905232153 75 115 1.0 4.0 0.00 0.01 0.01 49 1014.5
20260905231502 75 136 1.0 7.0 0.00 0.01 0.01 53 1015.0
20260905231253 75 104 1.0 7.0 0.00 0.01 0.01 54 1014.6
20260905230354 74 166 1.0 7.0 0.00 0.01 0.01 56 1014.7
20260905225453 73 132 2.0 6.0 0.00 0.01 0.01 58 1014.8
20260905224553 73 130 2.0 8.0 0.00 0.01 0.01 58 1014.9
20260905224501 73 148 1.0 8.0 0.00 0.01 0.01 58 1015.5
20260905223654 73 138 3.0 7.0 0.00 0.01 0.01 57 1014.9
20260905223101 72 131 1.0 9.0 0.00 0.01 0.01 58 1015.6
20260905221854 72 162 1.0 7.0 0.00 0.01 0.01 58 1015.1
20260905221502 72 101 0.0 4.0 0.00 0.01 0.01 60 1015.6
20260905220954 72 209 1.0 4.0 0.00 0.01 0.01 60 1015.2
20260905220054 71 164 1.0 5.0 0.00 0.01 0.01 62 1015.3
20260905215154 70 192 1.0 4.0 0.00 0.01 0.01 66 1015.3
20260905214502 69 162 1.0 5.0 0.00 0.01 0.01 66 1016.0
20260905213354 69 155 1.0 4.0 0.00 0.01 0.01 68 1015.6
20260905213114 68 155 1.0 4.0 0.00 0.01 0.01 68 1016.2
20260905212453 68 153 2.0 4.0 0.00 0.01 0.01 69 1015.5
20260905211502 67 146 2.0 4.0 0.00 0.01 0.01 72 1016.1
20260905210653 66 159 1.0 4.0 0.00 0.01 0.01 74 1015.7
20260905210103 66 191 1.0 3.0 0.00 0.01 0.01 75 1016.5
20260905205753 65 154 0.0 3.0 0.00 0.01 0.01 76 1016.0
20260905204853 64 232 0.0 2.0 0.00 0.01 0.01 78 1016.0
20260905204504 64 264 0.0 2.0 0.00 0.01 0.01 78 1016.6
20260905203105 63 141 0.0 4.0 0.00 0.01 0.01 79 1016.8
20260905203053 63 154 1.0 4.0 0.00 0.01 0.01 79 1016.3
20260905202154 63 157 0.0 4.0 0.00 0.01 0.01 79 1016.3
20260905201501 62 118 0.0 3.0 0.00 0.01 0.01 80 1016.8
20260905201254 63 148 0.0 2.0 0.00 0.01 0.01 80 1016.2
20260905200353 62 164 1.0 3.0 0.00 0.01 0.01 80 1016.3
20260905195454 62 174 0.0 3.0 0.00 0.01 0.01 81 1016.3
20260905194554 62 0 0.0 2.0 0.00 0.01 0.01 81 1016.3
20260905194502 62 197 0.0 2.0 0.00 0.01 0.01 81 1016.9
20260905193654 61 0 0.0 2.0 0.00 0.01 0.01 81 1016.4
20260905193101 61 150 0.0 2.0 0.00 0.01 0.01 81 1016.9
20260905192754 61 0 0.0 2.0 0.00 0.01 0.01 82 1016.5
20260905191854 61 0 0.0 2.0 0.00 0.01 0.01 82 1016.5
20260905191502 60 172 0.0 2.0 0.00 0.01 0.01 84 1017.1
20260905190954 60 0 0.0 3.0 0.00 0.01 0.01 86 1016.6
20260905190103 59 163 0.0 4.0 0.00 0.01 0.01 88 1017.2
20260905190054 60 210 0.0 3.0 0.00 0.01 0.01 88 1016.7
20260905184507 58 269 0.0 2.0 0.01 0.01 0.01 90 1017.3
20260905184254 58 0 0.0 2.0 0.01 0.01 0.01 91 1016.8
20260905183102 57 215 0.0 3.0 0.01 0.01 0.01 92 1017.3
20260905181554 56 274 1.0 2.0 0.01 0.01 0.01 94 1017.1
20260905181503 56 231 0.0 2.0 0.01 0.01 0.01 94 1017.5
20260905180654 56 280 0.0 2.0 0.01 0.01 0.01 94 1017.1
20260905175754 55 0 0.0 3.0 0.01 0.01 0.01 94 1017.0
20260905174854 55 0 0.0 1.0 0.00 0.00 0.00 95 1017.1
20260905174504 54 236 0.0 1.0 0.00 0.00 0.00 96 1017.5
20260905173954 54 0 0.0 0.0 0.00 0.00 0.00 96 1017.1
20260905173111 53 248 0.0 3.0 0.00 0.00 0.00 96 1017.5
20260905173054 54 0 0.0 2.0 0.00 0.00 0.00 96 1017.0
20260905172154 53 280 0.0 2.0 0.00 0.00 0.00 97 1017.0
20260905171502 53 257 0.0 2.0 0.00 0.00 0.00 97 1017.5
20260905171254 53 0 0.0 2.0 0.00 0.00 0.00 97 1016.9
20260905170354 53 0 0.0 0.0 0.00 0.00 0.00 97 1017.0
20260905165454 53 0 0.0 2.0 0.00 0.00 0.00 100 1017.0
20260905164554 53 0 0.0 2.0 0.00 0.00 0.00 100 1016.9
20260905164501 52 93 0.0 0.0 0.00 0.00 0.00 98 1017.4
20260905163654 52 0 0.0 0.0 0.00 0.00 0.00 100 1016.9
20260905163107 52 93 0.0 1.0 0.00 0.00 0.00 98 1017.3
20260905161854 52 144 1.0 2.0 0.00 0.00 0.00 100 1016.7
20260905161501 52 139 0.0 3.0 0.00 0.00 0.00 98 1017.1
20260905160105 51 162 0.0 0.0 0.00 0.00 0.00 98 1017.2
20260905160054 52 0 0.0 0.0 0.00 0.00 0.00 100 1016.6
20260905155154 52 0 0.0 0.0 0.00 0.00 0.00 99 1016.5
20260905154502 51 162 0.0 0.0 0.00 0.00 0.00 98 1017.0
20260905154254 51 0 0.0 0.0 0.00 0.00 0.00 99 1016.5
20260905153354 51 0 0.0 0.0 0.00 0.00 0.00 100 1016.5
20260905153107 50 162 0.0 0.0 0.00 0.00 0.00 98 1017.1
20260905152454 50 0 0.0 0.0 0.00 0.00 0.00 99 1016.6
20260905151554 50 0 0.0 0.0 0.00 0.00 0.00 100 1016.5
20260905151502 49 162 0.0 0.0 0.00 0.00 0.00 98 1017.0
20260905150654 50 0 0.0 0.0 0.00 0.00 0.00 100 1016.4
20260905144854 48 0 0.0 0.0 0.00 0.00 0.00 100 1016.4
20260905144509 48 162 0.0 0.0 0.00 0.00 0.00 98 1017.0
20260905143954 48 0 0.0 0.0 0.00 0.00 0.00 100 1016.5
20260905143105 48 162 0.0 0.0 0.00 0.00 0.00 98 1016.9
20260905142154 48 0 0.0 0.0 0.00 0.00 0.00 100 1016.5
20260905141502 47 162 0.0 0.0 0.00 0.00 0.00 98 1016.8
20260905141254 48 0 0.0 0.0 0.00 0.00 0.00 100 1016.3
20260905140354 47 0 0.0 0.0 0.00 0.00 0.00 100 1016.3
20260905140106 47 162 0.0 0.0 0.00 0.00 0.00 98 1016.8
20260905135454 47 0 0.0 0.0 0.00 0.00 0.00 100 1016.2
20260905134503 46 162 0.0 0.0 0.00 0.00 0.00 98 1016.6
20260905133654 47 0 0.0 0.0 0.00 0.00 0.00 100 1016.2
20260905133103 46 162 0.0 0.0 0.00 0.00 0.00 98 1016.6
20260905132754 47 0 0.0 0.0 0.00 0.00 0.00 100 1016.1
20260905131854 47 0 0.0 0.0 0.00 0.00 0.00 100 1016.0
20260905131502 46 162 0.0 0.0 0.00 0.00 0.00 98 1016.5
20260905130954 47 0 0.0 0.0 0.00 0.00 0.00 100 1016.0
20260905130106 46 162 0.0 0.0 0.00 0.00 0.00 98 1016.4
20260905130054 47 0 0.0 0.0 0.00 0.00 0.00 100 1015.9
20260905125154 47 0 0.0 0.0 0.00 0.00 0.00 100 1015.9
20260905124502 46 162 0.0 0.0 0.00 0.00 0.00 98 1016.5
20260905124254 47 0 0.0 0.0 0.00 0.00 0.00 100 1016.0
20260905123354 46 0 0.0 0.0 0.00 0.00 0.00 100 1015.9
20260905123103 46 162 0.0 0.0 0.00 0.00 0.00 98 1016.4
20260905122454 46 0 0.0 0.0 0.00 0.00 0.00 100 1015.9
20260905121502 46 162 0.0 0.0 0.00 0.00 0.00 98 1016.4
20260905120654 46 0 0.0 0.0 0.00 0.00 0.00 100 1015.9
20260905115754 46 0 0.0 0.0 0.00 0.00 0.00 100 1015.7
20260905114501 45 162 0.0 0.0 0.00 0.01 0.00 98 1016.3
20260905113954 45 0 0.0 0.0 0.00 0.00 0.00 100 1015.7
20260905113103 44 162 0.0 0.0 0.00 0.01 0.00 98 1016.2
20260905113054 45 0 0.0 0.0 0.00 0.00 0.00 100 1015.6
20260905112154 44 0 0.0 0.0 0.00 0.00 0.00 97 1015.5
20260905111502 44 162 0.0 0.0 0.00 0.01 0.00 97 1016.0
20260905111254 44 0 0.0 0.0 0.00 0.00 0.00 100 1015.5
20260905110354 44 0 0.0 0.0 0.00 0.00 0.00 97 1015.4
20260905105454 44 0 0.0 0.0 0.00 0.00 0.00 97 1015.3
20260905104502 43 162 0.0 0.0 0.00 0.01 0.00 96 1015.9
20260905103654 44 0 0.0 0.0 0.00 0.00 0.00 97 1015.4
20260905103102 44 162 0.0 0.0 0.00 0.01 0.00 97 1015.9
20260905102754 44 0 0.0 0.0 0.00 0.00 0.00 96 1015.3
20260905101854 45 0 0.0 0.0 0.00 0.00 0.00 97 1015.4
20260905101505 44 162 0.0 0.0 0.00 0.01 0.00 97 1016.0
20260905100954 45 0 0.0 0.0 0.00 0.00 0.00 97 1015.3
20260905100115 45 162 0.0 0.0 0.00 0.01 0.00 97 1015.8
20260905100054 45 0 0.0 0.0 0.00 0.00 0.00 97 1015.4
20260905095154 45 0 0.0 0.0 0.00 0.00 0.00 96 1015.5
20260905094502 45 162 0.0 0.0 0.00 0.01 0.00 96 1016.0
20260905094254 45 0 0.0 0.0 0.00 0.00 0.00 97 1015.3
20260905093103 45 162 0.0 0.0 0.00 0.01 0.00 96 1016.0
20260905092454 46 0 0.0 0.0 0.00 0.00 0.00 96 1015.3
20260905091554 46 0 0.0 0.0 0.00 0.00 0.00 96 1015.5
20260905091502 46 162 0.0 0.0 0.00 0.01 0.00 96 1016.0
20260905090654 46 0 0.0 0.0 0.00 0.00 0.00 96 1015.5
20260905085754 47 0 0.0 0.0 0.00 0.01 0.00 97 1015.4
20260905084854 46 0 0.0 0.0 0.00 0.01 0.00 96 1015.5
20260905084502 46 162 0.0 0.0 0.00 0.01 0.00 96 1015.9
20260905083954 47 0 0.0 0.0 0.00 0.01 0.00 96 1015.4
20260905083103 46 162 0.0 0.0 0.00 0.01 0.00 96 1015.9
20260905083054 47 0 0.0 0.0 0.00 0.01 0.00 96 1015.3
20260905082154 47 0 0.0 0.0 0.00 0.01 0.00 96 1015.3
20260905081502 46 162 0.0 0.0 0.00 0.01 0.00 96 1015.7
20260905081254 47 0 0.0 0.0 0.00 0.01 0.00 96 1015.1
20260905075454 47 0 0.0 0.0 0.00 0.01 0.00 96 1015.0
20260905074506 48 162 0.0 0.0 0.00 0.01 0.00 96 1015.4
20260905073655 48 0 0.0 0.0 0.00 0.01 0.00 96 1015.0
20260905073109 47 162 0.0 0.0 0.00 0.01 0.00 96 1015.6
20260905072754 48 0 0.0 0.0 0.00 0.01 0.00 95 1015.0
20260905071854 48 0 0.0 0.0 0.00 0.01 0.00 95 1015.1
20260905071502 48 162 0.0 0.0 0.00 0.01 0.00 95 1015.5
20260905070954 49 0 0.0 0.0 0.00 0.01 0.00 95 1015.0
20260905070054 49 0 0.0 0.0 0.00 0.01 0.00 95 1014.7
20260905065154 50 0 0.0 0.0 0.00 0.01 0.01 95 1014.9
20260905064503 49 162 0.0 0.0 0.00 0.01 0.01 95 1015.3
20260905063113 50 162 0.0 0.0 0.00 0.01 0.01 94 1015.3
20260905062454 50 0 0.0 0.0 0.00 0.01 0.01 94 1014.9
20260905061502 51 162 0.0 0.0 0.00 0.01 0.01 94 1015.2
20260905060655 51 0 0.0 0.0 0.00 0.01 0.01 94 1014.6
20260905055754 52 0 0.0 0.0 0.00 0.01 0.01 94 1014.6
20260905054855 52 0 0.0 0.0 0.00 0.01 0.01 94 1014.6
20260905054502 52 162 0.0 0.0 0.00 0.01 0.01 94 1015.2
20260905053954 52 0 0.0 0.0 0.00 0.01 0.01 94 1014.6
20260905053102 52 162 0.0 0.0 0.00 0.01 0.01 94 1015.0
20260905053054 53 0 0.0 0.0 0.00 0.01 0.01 94 1014.5
20260905051502 53 162 0.0 0.0 0.00 0.01 0.01 92 1014.9
20260905051255 53 0 0.0 0.0 0.00 0.01 0.01 92 1014.3
20260905050355 54 0 0.0 0.0 0.00 0.01 0.01 92 1014.2
20260905050108 53 162 0.0 0.0 0.00 0.01 0.01 92 1014.7
20260905044555 54 0 0.0 0.0 0.00 0.01 0.01 92 1014.3
20260905044503 54 162 0.0 0.0 0.00 0.01 0.01 92 1014.8
20260905043654 55 0 0.0 0.0 0.00 0.01 0.01 90 1014.2
20260905043103 55 276 0.0 0.0 0.00 0.01 0.01 90 1014.8
20260905041854 56 0 0.0 0.0 0.00 0.01 0.01 88 1014.3
20260905041503 56 276 0.0 0.0 0.00 0.01 0.01 88 1014.8
20260905040955 57 0 0.0 0.0 0.00 0.01 0.01 88 1014.4
20260905040055 57 0 0.0 0.0 0.00 0.01 0.01 86 1014.3
20260905035154 58 0 0.0 0.0 0.00 0.01 0.01 85 1014.4
20260905034501 58 276 0.0 0.0 0.00 0.01 0.01 84 1014.9
20260905034254 59 0 0.0 0.0 0.00 0.01 0.01 84 1014.2
20260905033354 60 0 0.0 1.0 0.00 0.01 0.01 84 1014.2
20260905033109 59 276 0.0 1.0 0.00 0.01 0.01 84 1014.9
20260905032454 60 0 0.0 2.0 0.00 0.01 0.01 83 1014.2
20260905031555 60 0 0.0 1.0 0.00 0.01 0.01 82 1014.1
20260905031503 60 293 0.0 1.0 0.00 0.01 0.01 82 1014.6
20260905030655 61 281 0.0 4.0 0.00 0.01 0.01 80 1013.8
20260905030101 61 286 0.0 4.0 0.00 0.01 0.01 79 1014.4
20260905025755 62 271 1.0 3.0 0.00 0.01 0.01 78 1013.9
20260905024854 63 293 0.0 4.0 0.00 0.01 0.01 74 1013.8
20260905024504 63 300 1.0 4.0 0.00 0.01 0.01 73 1014.3
20260905023955 64 0 0.0 0.0 0.00 0.01 0.01 65 1013.7
20260905023130 65 99 0.0 2.0 0.00 0.01 0.01 63 1014.1
20260905023055 65 74 0.0 2.0 0.00 0.01 0.01 63 1013.6
20260905022155 66 129 1.0 5.0 0.00 0.01 0.01 62 1013.5
20260905021502 66 153 0.0 9.0 0.00 0.01 0.01 65 1013.9